Regional Weather Roundup
Issued by NWS

Home | Current Version | Previous Version | Text Only | Print | Product List | Glossary On
Versions: 1 2 3 4 5 6 7 8 9 10 11 12 13 14 15 16 17 18 19 20 21 22 23 24 25 26 27 28 29 30 31 32 33 34 35 36 37 38 39 40 41 42 43 44 45 46 47 48 49 50
000
ASUS43 KDTX 260210
RWRMI
MICHIGAN HOURLY REGIONAL WEATHER ROUNDUP
NATIONAL WEATHER SERVICE DETROIT/PONTIAC MI
ISSUED BY NATIONAL WEATHER SERVICE GRAND RAPIDS MI
1000 PM EDT THU MAY 25 2017

NOTE: "FAIR" INDICATES FEW OR NO CLOUDS BELOW 12,000 FEET WITH NO
SIGNIFICANT WEATHER AND/OR OBSTRUCTION TO VISIBILITY.

MIZ047>049-052>055-059>063-066>070-074>076-081>083-260300-
SOUTHEAST LOWER MICHIGAN

CITY           SKY/WX    TMP DP  RH WIND       PRES   REMARKS
ADRIAN         CLOUDY    59  56  89 NW3       29.62R
ALMA           CLOUDY    57  54  89 N8        29.64R
ANN ARBOR      CLOUDY    60  56  86 W8        29.59R
BAD AXE        LGT RAIN  52  52  99 N5        29.61R
DETROIT CITY   CLOUDY    57  55  93 NW8       29.58R
DETROIT        CLOUDY    60  56  86 NW6       29.59R
FLINT          CLOUDY    54  53  97 N9        29.61R
GROSSE ILE     CLOUDY    59  56  89 NW6       29.58R
HILLSDALE      CLOUDY    57  54  88 W6        29.62R
HOWELL         CLOUDY    57  54  91 N6        29.61R

CITY           SKY/WX    TMP DP  RH WIND       PRES   REMARKS
JACKSON        CLOUDY    59  55  87 NW7       29.62R
LANSING        CLOUDY    59  54  83 NW6       29.63R
MASON          CLOUDY    58  55  88 NW8       29.62R
MONROE         CLOUDY    60  56  87 NW7       29.58R
MT. CLEMENS    DRIZZLE   57  57 100 NW8       29.56R FOG
PONTIAC        DRIZZLE   56  53  90 NW10      29.58R
PORT HOPE        N/A     49  48  97 CALM      29.59R
PORT HURON     LGT RAIN  54  52  94 NW3       29.58R
TRI CITIES     CLOUDY    55  55 100 N10       29.63R FOG
YPSILANTI      CLOUDY    60  58  92 NW7       29.60R
$$
MIZ043>046-050>051-056>058-064>065-071>073-077>080-260300-
SOUTHWEST LOWER MICHIGAN

CITY           SKY/WX    TMP DP  RH WIND       PRES   REMARKS
BATTLE CREEK   CLOUDY    60  57  89 W6        29.65R
BENTON HARBOR  CLEAR     49  46  90 W3        29.69R
BIG RAPIDS     CLOUDY    58  52  83 NW7       29.65R
COLDWATER      CLOUDY    60  57  91 W8        29.64R
HOLLAND        PTCLDY    55  51  86 NW5       29.66R
GRAND RAPIDS   PTCLDY    60  53  77 N6        29.64R
KALAMAZOO      PTCLDY    59  52  77 W7        29.65R
MARSHALL       CLOUDY    59  58  97 CALM      29.63R
MOUNT PLEASANT CLOUDY    58  53  84 N6        29.64R
MUSKEGON       CLEAR     60  54  80 NW6       29.66R
STURGIS        CLEAR     57  54  89 W6        29.65R
$$
MIZ016>042-260300-
NORTHERN LOWER MICHIGAN

CITY           SKY/WX    TMP DP  RH WIND       PRES   REMARKS
ALPENA         LGT RAIN  54  54 100 N12       29.67R FOG
BEAVER ISLAND  CLOUDY    55  53  92 NE5       29.73R
BELLAIRE       CLOUDY    56  51  82 CALM      29.69R
CADILLAC       CLOUDY    56  52  85 N6        29.67R
CHARLEVOIX     CLOUDY    55  54  95 NE3       29.73R
GAYLORD        CLOUDY    54  49  83 NE7       29.69R
HOUGHTON LAKE  CLOUDY    54  51  90 N7        29.66R
MANISTEE       CLEAR     57  53  86 N6        29.68R
OSCODA         DRIZZLE   53  52  96 N8        29.63R
PELLSTON       CLOUDY    55  52  89 NE6       29.72R
TRAVERSE CITY  CLOUDY    56  51  84 N5        29.68R
LUDINGTON      PTCLDY    54  52  92 N5        29.67R
$$
MIZ007>008-015-260300-
EASTERN UPPER MICHIGAN

CITY           SKY/WX    TMP DP  RH WIND       PRES   REMARKS
KINROSS        LGT RAIN  56  54  93 NE6       29.74R
MACKINAC ISLAN CLOUDY    53  53 100 N5        29.72R
NEWBERRY       CLOUDY    54  53  97 CALM      29.74R
S. S. MARIE    CLOUDY    59  53  80 E12G22    29.73R
$$
MIZ004>006-011>014-085-260300-
CENTRAL UPPER MICHIGAN

CITY           SKY/WX    TMP DP  RH WIND       PRES   REMARKS
MANISTIQUE     MOCLDY    56  52  84 N3        29.73R
ESCANABA       MOCLDY    57  53  86 CALM      29.73R
MENOMINEE      CLEAR     54  51  90 CALM      29.75R
SAWYER-GWINN   CLEAR     52  46  82 NE7       29.76R
$$
MIZ001>003-009>011-084-260300-
WESTERN UPPER MICHIGAN

CITY           SKY/WX    TMP DP  RH WIND       PRES   REMARKS
IRON MOUNTAIN  CLEAR     63  44  50 VRB3      29.73R
HOUGHTON       CLEAR     51  45  79 E3        29.75R
COPPER HARBOR    N/A     50  46  86 CALM      29.74R
IRONWOOD       CLEAR     60  47  61 E6        29.71R
$$

ABBREVIATIONS USED IN REMARKS
   TC - TEMPERATURE IN CELSIUS
  WCI - WIND CHILL INDEX
   HX - HEAT INDEX
  VSB - VISIBILITY




USA.gov is the U.S. government's official web portal to all federal, state and local government web resources and services.